This is the latest recevied weather packets stored in our database for station/object IK1PCD-11. If no packets are shown the sender has not sent any weather packets the latest 10 day(s).
| Time | Temp. | Humidity | Pressure | Rain* | Wind** | Luminosity | Snow |
|---|---|---|---|---|---|---|---|
| 1787651748 | 18.89° C | 100% | 1015.3 hPa | - | - | - | - |
| 1787650849 | 18.33° C | 100% | 1015.2 hPa | - | - | - | - |
| 1787649949 | 18.33° C | 100% | 1015.4 hPa | - | - | - | - |
| 1787649049 | 17.78° C | 100% | 1015.3 hPa | - | - | - | - |
| 1787648149 | 17.22° C | 100% | 1015.2 hPa | - | - | - | - |
| 1787645448 | 16.11° C | 100% | 1015.3 hPa | - | - | - | - |
| 1787644548 | 16.11° C | 100% | 1015.4 hPa | - | - | - | - |
| 1787643648 | 16.11° C | 100% | 1015.4 hPa | - | - | - | - |
| 1787642750 | 15.56° C | 100% | 1015.4 hPa | - | - | - | - |
| 1787641848 | 15.56° C | 100% | 1015.3 hPa | - | - | - | - |
| 1787640948 | 15.56° C | 100% | 1015 hPa | - | - | - | - |
| 1787640048 | 15.56° C | 100% | 1015.2 hPa | - | - | - | - |
| 1787639148 | 15° C | 100% | 1014.8 hPa | - | - | - | - |
| 1787638248 | 15° C | 100% | 1014.8 hPa | - | - | - | - |
| 1787637348 | 14.44° C | 100% | 1014.5 hPa | - | - | - | - |
| 1787636447 | 14.44° C | 100% | 1014.5 hPa | - | - | - | - |
| 1787635547 | 14.44° C | 100% | 1014.3 hPa | - | - | - | - |
| 1787634647 | 13.89° C | 100% | 1014.2 hPa | - | - | - | - |
| 1787631047 | 13.33° C | 100% | 1014.1 hPa | - | - | - | - |
| 1787630147 | 13.33° C | 100% | 1014.3 hPa | - | - | - | - |
| 1787629248 | 13.33° C | 100% | 1014.2 hPa | - | - | - | - |
| 1787628348 | 13.33° C | 100% | 1014 hPa | - | - | - | - |
| 1787627448 | 13.89° C | 100% | 1014 hPa | - | - | - | - |
| 1787626548 | 13.89° C | 100% | 1014.3 hPa | - | - | - | - |
| 1787625648 | 13.89° C | 100% | 1014.7 hPa | - | - | - | - |
* Rain since midnight (hover to see other rain measurements)
** Current wind speed in m/s (hover to see current wind gust speed)